+ View the NASA Portal
+ Center for Near-Earth Object Studies
JPL Small-Body Database Browser
Search:
[
help
]
26582 (2000 EV107)
Classification:
Main-belt Asteroid
SPK-ID:
2026582
[
Ephemeris
|
Orbit Diagram
|
Orbital Elements
|
Mission Design
|
Physical Parameters
|
Discovery Circumstances
|
Close-Approach Data
]
[ show orbit diagram ]
Orbital Elements at Epoch 2459200.5 (2020-Dec-17.0) TDB
Reference:
JPL 35
(heliocentric ecliptic J2000)
Element
Value
Uncertainty (1-sigma)
Units
e
.1813225383480967
4.2162e-08
a
2.574067075949452
1.1181e-08
au
q
2.107330699860035
1.1153e-07
au
i
9.649962614280689
4.0532e-06
deg
node
265.0599630798404
2.5532e-05
deg
peri
86.89478410246882
2.814e-05
deg
M
172.3145142562714
1.2447e-05
deg
t
p
2458478.482746327667
(2018-Dec-25.98274633)
5.0219e-05
TDB
period
1508.440611888734
4.13
9.8285e-06
2.691e-08
d
yr
n
.2386570589273914
1.555e-09
deg/d
Q
3.04080345203887
1.3209e-08
au
Orbit Determination Parameters
# obs. used (total)
2084
data-arc span
12407 days (33.97 yr)
first obs. used
1987-01-30
last obs. used
2021-01-18
planetary ephem.
DE431
SB-pert. ephem.
SB431-N16
condition code
0
norm. resid. RMS
.47179
source
ORB
producer
Otto Matic
solution date
2021-Feb-24 03:20:27
Additional Information
Earth MOID
= 1.12667 au
Jupiter MOID
= 2.48072 au
T_jup
= 3.385
[ show covariance matrix ]
[
Ephemeris
|
Orbit Diagram
|
Orbital Elements
|
Mission Design
|
Physical Parameters
|
Discovery Circumstances
|
Close-Approach Data
]
Physical Parameter Table
Parameter
Symbol
Value
Units
Sigma
Reference
Notes
absolute magnitude
H
13.47
n/a
E2021B10
diameter
diameter
5.579
km
0.044
urn:nasa:pds:neowise_diameters_albedos::2.0[mainbelt] (http://adsabs.harvard.edu/abs/2011ApJ...741...68M)
rotation period
rot_per
5.014
h
n/a
LCDB (Rev. 2020-October); Warner et al., 2009
Published Reference List:
[Durech, J.; Hanus, J.; Ali-Lagoa, V. (2018) Astron. Astrophys. 617, A57.]
[Clark, M. (2019) Minor Planet Bull. 46, 346-349.]
geometric albedo
albedo
0.206
0.026
urn:nasa:pds:neowise_diameters_albedos::2.0[mainbelt] (http://adsabs.harvard.edu/abs/2011ApJ...741...68M)
26582 (2000 EV107)
Discovered 2000-Mar-08 by LINEAR at Socorro
Reference:
20010705/Numbers.arc
Last Updated:
2004-04-19
[ show close-approach data ]
Alternate Designations
2000 EV107
= 1987 BD3 = 1994 WA11 = 1998 VR29
[
Ephemeris
|
Orbit Diagram
|
Orbital Elements
|
Mission Design
|
Physical Parameters
|
Discovery Circumstances
|
Close-Approach Data
]
2021-Mar-03 01:00 UT
(server date/time)
Site Manager:
Ryan S. Park
Webmaster
:
Alan B. Chamberlin